Time,TemperatureF,DewpointF,PressureIn,WindDirection,WindDirectionDegrees,WindSpeedMPH,WindSpeedGustMPH,Humidity,HourlyPrecipIn,Conditions,Clouds,dailyrainin,SoftwareType,DateUTC
2013-12-04 00:01:00,33.6,29.3,29.96,NNW,332,2.0,8.0,84,0.00,,,0.00,meteohub,2013-12-04 05:01:00,
2013-12-04 00:02:00,33.6,29.3,29.96,WNW,284,5.0,8.0,84,0.00,,,0.00,meteohub,2013-12-04 05:02:00,
2013-12-04 00:03:00,33.4,29.1,29.97,North,2,4.0,8.0,84,0.00,,,0.00,meteohub,2013-12-04 05:03:00,
2013-12-04 00:08:00,33.4,28.8,29.97,NNW,330,5.0,7.0,83,0.00,,,0.00,meteohub,2013-12-04 05:08:00,
2013-12-04 00:13:00,33.4,28.8,29.97,NNW,328,3.0,7.0,83,0.00,,,0.00,meteohub,2013-12-04 05:13:00,
2013-12-04 00:18:00,33.4,28.8,29.96,NNW,335,5.0,8.0,83,0.00,,,0.00,meteohub,2013-12-04 05:18:00,
2013-12-04 00:23:00,33.3,28.6,29.96,North,11,2.0,8.0,83,0.00,,,0.00,meteohub,2013-12-04 05:23:00,
2013-12-04 00:28:00,33.1,28.4,29.97,WNW,284,5.0,7.0,83,0.00,,,0.00,meteohub,2013-12-04 05:28:00,
2013-12-04 00:33:00,32.9,28.2,29.97,NNW,331,7.0,7.0,83,0.00,,,0.00,meteohub,2013-12-04 05:33:00,
2013-12-04 00:38:00,32.9,28.2,29.97,NW,306,6.0,8.0,83,0.00,,,0.00,meteohub,2013-12-04 05:38:00,
2013-12-04 00:43:00,32.7,28.2,29.97,NW,309,5.0,10.0,83,0.00,,,0.00,meteohub,2013-12-04 05:43:00,
2013-12-04 00:48:00,32.7,28.2,29.97,WNW,299,6.0,12.0,83,0.00,,,0.00,meteohub,2013-12-04 05:48:00,
2013-12-04 00:53:00,32.5,28.0,29.97,NNW,328,4.0,12.0,83,0.00,,,0.00,meteohub,2013-12-04 05:53:00,
2013-12-04 00:58:00,32.5,28.0,29.98,NNW,330,7.0,8.0,83,0.00,,,0.00,meteohub,2013-12-04 05:58:00,
2013-12-04 01:03:00,32.5,28.0,29.97,NW,318,4.0,8.0,83,0.00,,,0.00,meteohub,2013-12-04 06:03:00,
2013-12-04 01:08:00,32.5,28.0,29.97,North,349,5.0,10.0,83,0.00,,,0.00,meteohub,2013-12-04 06:08:00,
2013-12-04 01:13:00,32.5,28.0,29.97,WNW,298,7.0,10.0,83,0.00,,,0.00,meteohub,2013-12-04 06:13:00,
2013-12-04 01:18:00,32.5,28.0,29.97,NW,316,5.0,10.0,83,0.00,,,0.00,meteohub,2013-12-04 06:18:00,
2013-12-04 01:23:00,32.5,28.0,29.97,NNW,336,6.0,10.0,83,0.00,,,0.00,meteohub,2013-12-04 06:23:00,
2013-12-04 01:28:00,32.5,27.7,29.97,NNW,340,7.0,10.0,82,0.00,,,0.00,meteohub,2013-12-04 06:28:00,
2013-12-04 01:33:00,32.5,28.0,29.97,NW,318,5.0,13.0,83,0.00,,,0.00,meteohub,2013-12-04 06:33:00,
2013-12-04 01:38:00,32.5,27.7,29.98,WNW,289,5.0,13.0,82,0.00,,,0.00,meteohub,2013-12-04 06:38:00,
2013-12-04 01:43:00,32.5,27.7,29.98,NW,305,2.0,13.0,82,0.00,,,0.00,meteohub,2013-12-04 06:43:00,
2013-12-04 01:48:00,32.5,27.7,29.98,NNW,335,3.0,9.0,82,0.00,,,0.00,meteohub,2013-12-04 06:48:00,
2013-12-04 01:53:00,32.5,27.7,29.98,NW,324,4.0,10.0,82,0.00,,,0.00,meteohub,2013-12-04 06:53:00,
2013-12-04 01:58:00,32.5,27.7,29.98,NW,325,4.0,10.0,82,0.00,,,0.00,meteohub,2013-12-04 06:58:00,
2013-12-04 02:03:00,32.5,27.7,29.99,NW,321,3.0,10.0,82,0.00,,,0.00,meteohub,2013-12-04 07:03:00,
2013-12-04 02:08:00,32.5,27.7,29.99,NW,313,4.0,9.0,82,0.00,,,0.00,meteohub,2013-12-04 07:08:00,
2013-12-04 02:13:00,32.4,27.5,29.99,NW,305,4.0,9.0,82,0.00,,,0.00,meteohub,2013-12-04 07:13:00,
2013-12-04 02:18:00,32.5,27.7,29.99,NNW,331,3.0,10.0,82,0.00,,,0.00,meteohub,2013-12-04 07:18:00,
2013-12-04 02:23:00,32.4,27.5,29.99,NW,318,4.0,10.0,82,0.00,,,0.00,meteohub,2013-12-04 07:23:00,
2013-12-04 02:28:00,32.5,27.3,29.99,North,356,4.0,10.0,81,0.00,,,0.00,meteohub,2013-12-04 07:28:00,
2013-12-04 02:33:00,32.5,27.3,29.99,NNE,22,5.0,9.0,81,0.00,,,0.00,meteohub,2013-12-04 07:33:00,
2013-12-04 02:38:00,32.5,27.3,29.99,NW,312,4.0,10.0,81,0.00,,,0.00,meteohub,2013-12-04 07:38:00,
2013-12-04 02:43:00,32.5,27.1,29.99,NW,322,8.0,10.0,80,0.00,,,0.00,meteohub,2013-12-04 07:43:00,
2013-12-04 02:48:00,32.5,27.1,30.00,NNW,336,6.0,10.0,80,0.00,,,0.00,meteohub,2013-12-04 07:48:00,
2013-12-04 02:53:00,32.5,27.1,30.00,NNW,343,5.0,8.0,80,0.00,,,0.00,meteohub,2013-12-04 07:53:00,
2013-12-04 02:58:00,32.5,27.1,30.00,NNW,334,5.0,9.0,80,0.00,,,0.00,meteohub,2013-12-04 07:58:00,
2013-12-04 03:03:00,32.5,27.1,30.00,NW,316,4.0,10.0,80,0.00,,,0.00,meteohub,2013-12-04 08:03:00,
2013-12-04 03:08:00,32.4,27.0,30.00,NNW,329,4.0,10.0,80,0.00,,,0.00,meteohub,2013-12-04 08:08:00,
2013-12-04 03:13:00,32.4,27.0,30.00,North,358,4.0,10.0,80,0.00,,,0.00,meteohub,2013-12-04 08:13:00,
2013-12-04 03:18:00,32.4,27.0,30.00,NW,320,3.0,9.0,80,0.00,,,0.00,meteohub,2013-12-04 08:18:00,
2013-12-04 03:23:00,32.2,26.4,30.00,NW,325,4.0,9.0,79,0.00,,,0.00,meteohub,2013-12-04 08:23:00,
2013-12-04 03:28:00,32.2,26.4,30.00,NW,320,5.0,9.0,79,0.00,,,0.00,meteohub,2013-12-04 08:28:00,
2013-12-04 03:33:00,32.2,26.1,30.00,North,352,7.0,8.0,78,0.00,,,0.00,meteohub,2013-12-04 08:33:00,
2013-12-04 03:38:00,32.2,26.1,30.00,NW,316,7.0,8.0,78,0.00,,,0.00,meteohub,2013-12-04 08:38:00,
2013-12-04 03:43:00,32.2,25.7,30.00,NW,324,5.0,11.0,77,0.00,,,0.00,meteohub,2013-12-04 08:43:00,
2013-12-04 03:48:00,32.2,25.5,30.00,NNW,330,5.0,11.0,76,0.00,,,0.00,meteohub,2013-12-04 08:48:00,
2013-12-04 03:53:00,32.0,25.3,30.00,NNW,343,6.0,11.0,76,0.00,,,0.00,meteohub,2013-12-04 08:53:00,
2013-12-04 03:58:00,31.8,25.2,30.00,NW,307,5.0,11.0,76,0.00,,,0.00,meteohub,2013-12-04 08:58:00,
2013-12-04 04:03:00,31.8,24.8,30.00,NNW,335,4.0,11.0,75,0.00,,,0.00,meteohub,2013-12-04 09:03:00,
2013-12-04 04:08:00,31.6,24.6,30.00,NNW,339,5.0,10.0,75,0.00,,,0.00,meteohub,2013-12-04 09:08:00,
2013-12-04 04:13:00,31.6,24.6,30.01,North,4,9.0,10.0,75,0.00,,,0.00,meteohub,2013-12-04 09:13:00,
2013-12-04 04:18:00,31.6,24.6,30.01,NNW,336,5.0,9.0,75,0.00,,,0.00,meteohub,2013-12-04 09:18:00,
2013-12-04 04:23:00,31.5,24.1,30.01,WNW,303,4.0,9.0,74,0.00,,,0.00,meteohub,2013-12-04 09:23:00,
2013-12-04 04:28:00,31.5,24.1,30.01,NW,313,7.0,9.0,74,0.00,,,0.00,meteohub,2013-12-04 09:28:00,
2013-12-04 04:33:00,31.3,24.3,30.01,NNW,332,4.0,9.0,75,0.00,,,0.00,meteohub,2013-12-04 09:33:00,
2013-12-04 04:38:00,31.3,23.9,30.01,NW,320,4.0,9.0,74,0.00,,,0.00,meteohub,2013-12-04 09:38:00,
2013-12-04 04:43:00,31.1,24.1,30.01,NW,316,3.0,9.0,75,0.00,,,0.00,meteohub,2013-12-04 09:43:00,
2013-12-04 04:48:00,30.9,24.3,30.01,North,350,0.0,8.0,76,0.00,,,0.00,meteohub,2013-12-04 09:48:00,
2013-12-04 04:53:00,30.7,24.1,30.01,WSW,258,3.0,8.0,76,0.00,,,0.00,meteohub,2013-12-04 09:53:00,
2013-12-04 04:58:00,30.7,24.1,30.02,NNW,338,1.0,5.0,76,0.00,,,0.00,meteohub,2013-12-04 09:58:00,
2013-12-04 05:03:00,30.6,23.9,30.02,NNW,339,0.0,5.0,76,0.00,,,0.00,meteohub,2013-12-04 10:03:00,
2013-12-04 05:08:00,30.6,23.9,30.02,North,349,1.0,5.0,76,0.00,,,0.00,meteohub,2013-12-04 10:08:00,
2013-12-04 05:13:00,30.6,23.9,30.02,NNW,344,0.0,5.0,76,0.00,,,0.00,meteohub,2013-12-04 10:13:00,
2013-12-04 05:18:00,30.4,24.1,30.02,North,353,3.0,5.0,77,0.00,,,0.00,meteohub,2013-12-04 10:18:00,
2013-12-04 05:23:00,30.2,23.9,30.03,WNW,299,0.0,5.0,77,0.00,,,0.00,meteohub,2013-12-04 10:23:00,
2013-12-04 05:28:00,30.2,23.9,30.03,WNW,288,1.0,4.0,77,0.00,,,0.00,meteohub,2013-12-04 10:28:00,
2013-12-04 05:33:00,30.2,24.3,30.03,NNW,335,0.0,4.0,78,0.00,,,0.00,meteohub,2013-12-04 10:33:00,
2013-12-04 05:38:00,30.2,24.3,30.04,North,350,1.0,4.0,78,0.00,,,0.00,meteohub,2013-12-04 10:38:00,
2013-12-04 05:43:00,30.0,24.3,30.04,NNE,12,1.0,5.0,79,0.00,,,0.00,meteohub,2013-12-04 10:43:00,
2013-12-04 05:48:00,29.8,24.1,30.04,North,357,0.0,5.0,79,0.00,,,0.00,meteohub,2013-12-04 10:48:00,
2013-12-04 05:53:00,29.5,23.7,30.04,North,357,0.0,4.0,79,0.00,,,0.00,meteohub,2013-12-04 10:53:00,
2013-12-04 05:58:00,29.3,23.5,30.04,NW,326,0.0,3.0,79,0.00,,,0.00,meteohub,2013-12-04 10:58:00,
2013-12-04 06:04:00,29.1,23.7,30.05,NW,326,0.0,4.0,80,0.00,,,0.00,meteohub,2013-12-04 11:04:00,
2013-12-04 06:09:00,28.9,23.5,30.05,SSE,159,0.0,4.0,80,0.00,,,0.00,meteohub,2013-12-04 11:09:00,
2013-12-04 06:14:00,28.9,23.5,30.05,NNW,336,0.0,4.0,80,0.00,,,0.00,meteohub,2013-12-04 11:14:00,
2013-12-04 06:19:00,28.9,23.9,30.06,NNW,343,1.0,5.0,81,0.00,,,0.00,meteohub,2013-12-04 11:19:00,
2013-12-04 06:24:00,29.1,24.1,30.06,NW,313,1.0,5.0,81,0.00,,,0.00,meteohub,2013-12-04 11:24:00,
2013-12-04 06:29:00,29.1,24.1,30.06,NNW,342,3.0,5.0,81,0.00,,,0.00,meteohub,2013-12-04 11:29:00,
2013-12-04 06:34:00,29.5,24.4,30.06,SE,128,2.0,5.0,81,0.00,,,0.00,meteohub,2013-12-04 11:34:00,
2013-12-04 06:39:00,28.9,24.1,30.07,ESE,123,1.0,5.0,82,0.00,,,0.00,meteohub,2013-12-04 11:39:00,
2013-12-04 06:44:00,28.6,24.1,30.07,ESE,122,2.0,5.0,83,0.00,,,0.00,meteohub,2013-12-04 11:44:00,
2013-12-04 06:49:00,28.2,24.1,30.07,ESE,117,0.0,5.0,84,0.00,,,0.00,meteohub,2013-12-04 11:49:00,
2013-12-04 06:54:00,28.0,23.9,30.07,NNW,345,1.0,3.0,84,0.00,,,0.00,meteohub,2013-12-04 11:54:00,
2013-12-04 06:59:00,28.6,24.4,30.07,NNW,331,1.0,4.0,84,0.00,,,0.00,meteohub,2013-12-04 11:59:00,
2013-12-04 07:04:00,28.8,24.3,30.08,ESE,122,0.0,5.0,83,0.00,,,0.00,meteohub,2013-12-04 12:04:00,
2013-12-04 07:09:00,28.8,24.6,30.08,SE,124,0.0,5.0,84,0.00,,,0.00,meteohub,2013-12-04 12:09:00,
2013-12-04 07:14:00,28.6,24.4,30.08,East,91,0.0,5.0,84,0.00,,,0.00,meteohub,2013-12-04 12:14:00,
2013-12-04 07:19:00,28.4,24.3,30.08,East,97,1.0,3.0,84,0.00,,,0.00,meteohub,2013-12-04 12:19:00,
2013-12-04 07:24:00,28.0,24.1,30.08,East,97,0.0,3.0,85,0.00,,,0.00,meteohub,2013-12-04 12:24:00,
2013-12-04 07:29:00,27.9,23.9,30.09,East,97,0.0,3.0,85,0.00,,,0.00,meteohub,2013-12-04 12:29:00,
2013-12-04 07:34:00,27.9,24.3,30.09,ESE,119,0.0,2.0,86,0.00,,,0.00,meteohub,2013-12-04 12:34:00,
2013-12-04 07:39:00,27.9,24.3,30.09,ESE,119,0.0,3.0,86,0.00,,,0.00,meteohub,2013-12-04 12:39:00,
2013-12-04 07:44:00,27.7,24.1,30.09,ESE,119,0.0,3.0,86,0.00,,,0.00,meteohub,2013-12-04 12:44:00,
2013-12-04 07:49:00,27.7,24.1,30.09,ESE,119,0.0,3.0,86,0.00,,,0.00,meteohub,2013-12-04 12:49:00,
2013-12-04 07:54:00,27.7,24.1,30.09,ESE,119,0.0,1.0,86,0.00,,,0.00,meteohub,2013-12-04 12:54:00,
2013-12-04 07:59:00,27.7,24.1,30.09,ESE,119,0.0,1.0,86,0.00,,,0.00,meteohub,2013-12-04 12:59:00,
2013-12-04 08:04:00,27.7,23.7,30.09,ESE,119,0.0,1.0,85,0.00,,,0.00,meteohub,2013-12-04 13:04:00,
2013-12-04 08:10:00,27.9,24.4,30.10,North,351,1.0,1.0,87,0.00,,,0.00,meteohub,2013-12-04 13:10:00,
2013-12-04 08:15:00,28.2,24.3,30.10,NNW,346,0.0,3.0,85,0.00,,,0.00,meteohub,2013-12-04 13:15:00,
2013-12-04 08:20:00,28.6,24.6,30.10,NNW,346,0.0,4.0,85,0.00,,,0.00,meteohub,2013-12-04 13:20:00,
2013-12-04 08:25:00,28.9,24.8,30.10,NNW,346,0.0,4.0,84,0.00,,,0.00,meteohub,2013-12-04 13:25:00,
2013-12-04 08:30:00,29.1,24.6,30.11,NW,306,0.0,3.0,83,0.00,,,0.00,meteohub,2013-12-04 13:30:00,
2013-12-04 08:35:00,29.5,24.6,30.11,NW,306,3.0,3.0,82,0.00,,,0.00,meteohub,2013-12-04 13:35:00,
2013-12-04 08:40:00,29.8,24.8,30.11,North,0,3.0,3.0,81,0.00,,,0.00,meteohub,2013-12-04 13:40:00,
2013-12-04 08:45:00,30.0,25.0,30.11,NNW,333,3.0,7.0,81,0.00,,,0.00,meteohub,2013-12-04 13:45:00,
2013-12-04 08:50:00,30.4,25.0,30.11,NNW,329,6.0,7.0,80,0.00,,,0.00,meteohub,2013-12-04 13:50:00,
2013-12-04 08:55:00,30.6,25.2,30.11,West,281,2.0,7.0,80,0.00,,,0.00,meteohub,2013-12-04 13:55:00,
2013-12-04 09:00:00,30.7,25.0,30.11,NNW,344,1.0,9.0,79,0.00,,,0.00,meteohub,2013-12-04 14:00:00,
2013-12-04 09:05:00,30.9,25.2,30.11,NNW,336,2.0,9.0,79,0.00,,,0.00,meteohub,2013-12-04 14:05:00,
2013-12-04 09:10:00,31.3,25.5,30.12,NNW,337,0.0,8.0,79,0.00,,,0.00,meteohub,2013-12-04 14:10:00,
2013-12-04 09:15:00,31.3,25.2,30.12,NW,319,0.0,8.0,78,0.00,,,0.00,meteohub,2013-12-04 14:15:00,
2013-12-04 09:20:00,31.3,25.2,30.12,NNW,330,3.0,6.0,78,0.00,,,0.00,meteohub,2013-12-04 14:20:00,
2013-12-04 09:25:00,31.5,25.2,30.12,NW,322,4.0,9.0,77,0.00,,,0.00,meteohub,2013-12-04 14:25:00,
2013-12-04 09:30:00,31.5,25.2,30.11,NNW,338,1.0,9.0,77,0.00,,,0.00,meteohub,2013-12-04 14:30:00,
2013-12-04 09:35:00,31.5,25.3,30.12,NNW,338,2.0,9.0,78,0.00,,,0.00,meteohub,2013-12-04 14:35:00,
2013-12-04 09:40:00,31.5,25.2,30.12,NW,313,0.0,6.0,77,0.00,,,0.00,meteohub,2013-12-04 14:40:00,
2013-12-04 09:45:00,31.6,25.3,30.12,NW,311,0.0,4.0,77,0.00,,,0.00,meteohub,2013-12-04 14:45:00,
2013-12-04 09:50:00,31.8,25.5,30.12,NW,317,3.0,4.0,77,0.00,,,0.00,meteohub,2013-12-04 14:50:00,
2013-12-04 09:55:00,31.8,25.5,30.12,NNE,18,5.0,6.0,77,0.00,,,0.00,meteohub,2013-12-04 14:55:00,
2013-12-04 10:00:00,31.8,25.5,30.12,NW,313,2.0,10.0,77,0.00,,,0.00,meteohub,2013-12-04 15:00:00,
2013-12-04 10:05:00,32.0,25.7,30.12,North,353,0.0,10.0,77,0.00,,,0.00,meteohub,2013-12-04 15:05:00,
2013-12-04 10:10:00,32.2,25.7,30.12,NW,317,2.0,10.0,77,0.00,,,0.00,meteohub,2013-12-04 15:10:00,
2013-12-04 10:15:00,32.4,25.9,30.12,WNW,298,4.0,6.0,77,0.00,,,0.00,meteohub,2013-12-04 15:15:00,
2013-12-04 10:20:00,32.4,25.7,30.12,WNW,297,3.0,7.0,76,0.00,,,0.00,meteohub,2013-12-04 15:20:00,
2013-12-04 10:25:00,32.4,25.9,30.12,North,359,1.0,7.0,77,0.00,,,0.00,meteohub,2013-12-04 15:25:00,
2013-12-04 10:30:00,32.5,25.9,30.12,WNW,289,1.0,7.0,76,0.00,,,0.00,meteohub,2013-12-04 15:30:00,
2013-12-04 10:35:00,32.5,25.9,30.11,North,1,7.0,7.0,76,0.00,,,0.00,meteohub,2013-12-04 15:35:00,
2013-12-04 10:40:00,32.5,25.9,30.11,WNW,288,0.0,7.0,76,0.00,,,0.00,meteohub,2013-12-04 15:40:00,
2013-12-04 10:45:00,32.7,26.1,30.11,NNW,333,3.0,7.0,76,0.00,,,0.00,meteohub,2013-12-04 15:45:00,
2013-12-04 10:50:00,32.7,25.7,30.12,NNW,330,1.0,7.0,75,0.00,,,0.00,meteohub,2013-12-04 15:50:00,
2013-12-04 10:55:00,32.9,25.9,30.11,NW,313,4.0,7.0,75,0.00,,,0.00,meteohub,2013-12-04 15:55:00,
2013-12-04 11:00:00,33.1,26.1,30.11,NNW,333,4.0,8.0,75,0.00,,,0.00,meteohub,2013-12-04 16:00:00,
2013-12-04 11:05:00,33.3,26.2,30.11,NNW,337,2.0,10.0,75,0.00,,,0.00,meteohub,2013-12-04 16:05:00,
2013-12-04 11:10:00,33.4,26.1,30.11,NW,307,3.0,10.0,74,0.00,,,0.00,meteohub,2013-12-04 16:10:00,
2013-12-04 11:15:00,33.6,26.2,30.11,NNW,336,3.0,9.0,74,0.00,,,0.00,meteohub,2013-12-04 16:15:00,
2013-12-04 11:20:00,33.6,25.9,30.11,North,349,5.0,9.0,73,0.00,,,0.00,meteohub,2013-12-04 16:20:00,
2013-12-04 11:25:00,33.8,26.1,30.10,NNW,338,3.0,9.0,73,0.00,,,0.00,meteohub,2013-12-04 16:25:00,
2013-12-04 11:30:00,33.6,25.9,30.09,WNW,301,3.0,9.0,73,0.00,,,0.00,meteohub,2013-12-04 16:30:00,
2013-12-04 11:35:00,33.8,26.1,30.09,WNW,300,3.0,9.0,73,0.00,,,0.00,meteohub,2013-12-04 16:35:00,
2013-12-04 11:40:00,34.0,26.2,30.09,NNW,344,4.0,8.0,73,0.00,,,0.00,meteohub,2013-12-04 16:40:00,
2013-12-04 11:45:00,34.2,26.1,30.09,NW,316,0.0,6.0,72,0.00,,,0.00,meteohub,2013-12-04 16:45:00,
2013-12-04 11:50:00,34.2,26.1,30.09,NW,316,0.0,6.0,72,0.00,,,0.00,meteohub,2013-12-04 16:50:00,
2013-12-04 11:55:00,34.3,26.2,30.09,WNW,297,0.0,5.0,72,0.00,,,0.00,meteohub,2013-12-04 16:55:00,
2013-12-04 12:00:00,34.5,26.4,30.09,WNW,298,2.0,3.0,72,0.00,,,0.00,meteohub,2013-12-04 17:00:00,
2013-12-04 12:05:00,34.7,27.3,30.09,SE,134,3.0,3.0,74,0.00,,,0.00,meteohub,2013-12-04 17:05:00,
2013-12-04 12:10:00,34.9,27.5,30.09,SE,135,3.0,5.0,74,0.00,,,0.00,meteohub,2013-12-04 17:10:00,
2013-12-04 12:15:00,34.9,27.1,30.09,ESE,114,5.0,6.0,73,0.00,,,0.00,meteohub,2013-12-04 17:15:00,
2013-12-04 12:20:00,34.9,27.5,30.10,SSE,147,2.0,6.0,74,0.00,,,0.00,meteohub,2013-12-04 17:20:00,
2013-12-04 12:25:00,35.1,27.3,30.10,South,188,1.0,6.0,73,0.00,,,0.00,meteohub,2013-12-04 17:25:00,
2013-12-04 12:30:00,35.2,27.5,30.09,SE,125,2.0,5.0,73,0.00,,,0.00,meteohub,2013-12-04 17:30:00,
2013-12-04 12:35:00,35.4,27.7,30.09,SE,128,0.0,5.0,73,0.00,,,0.00,meteohub,2013-12-04 17:35:00,
2013-12-04 12:40:00,35.6,27.5,30.09,SE,126,0.0,5.0,72,0.00,,,0.00,meteohub,2013-12-04 17:40:00,
2013-12-04 12:45:00,35.6,27.5,30.08,NNW,345,0.0,5.0,72,0.00,,,0.00,meteohub,2013-12-04 17:45:00,
2013-12-04 12:50:00,35.8,27.3,30.08,NNE,27,0.0,5.0,71,0.00,,,0.00,meteohub,2013-12-04 17:50:00,
2013-12-04 12:55:00,36.0,27.9,30.08,SE,129,0.0,3.0,72,0.00,,,0.00,meteohub,2013-12-04 17:55:00,
2013-12-04 13:00:00,36.1,27.3,30.08,NW,322,0.0,4.0,70,0.00,,,0.00,meteohub,2013-12-04 18:00:00,
2013-12-04 13:05:00,36.1,27.3,30.08,NNW,328,0.0,5.0,70,0.00,,,0.00,meteohub,2013-12-04 18:05:00,
2013-12-04 13:10:00,36.1,27.0,30.08,NNW,328,2.0,5.0,69,0.00,,,0.00,meteohub,2013-12-04 18:10:00,
2013-12-04 13:15:00,36.1,27.3,30.07,NNW,328,0.0,2.0,70,0.00,,,0.00,meteohub,2013-12-04 18:15:00,
2013-12-04 13:20:00,36.3,27.1,30.08,NNW,333,1.0,4.0,69,0.00,,,0.00,meteohub,2013-12-04 18:20:00,
2013-12-04 13:25:00,36.5,27.3,30.08,WNW,292,1.0,4.0,69,0.00,,,0.00,meteohub,2013-12-04 18:25:00,
2013-12-04 13:30:00,36.9,27.3,30.08,NNW,332,1.0,4.0,68,0.00,,,0.00,meteohub,2013-12-04 18:30:00,
2013-12-04 13:35:00,36.9,27.3,30.09,NNW,327,0.0,6.0,68,0.00,,,0.00,meteohub,2013-12-04 18:35:00,
2013-12-04 13:40:00,37.0,27.5,30.09,NW,307,1.0,6.0,68,0.00,,,0.00,meteohub,2013-12-04 18:40:00,
2013-12-04 13:45:00,37.0,27.5,30.09,NW,307,0.0,3.0,68,0.00,,,0.00,meteohub,2013-12-04 18:45:00,
2013-12-04 13:50:00,37.2,27.3,30.08,North,351,2.0,4.0,67,0.00,,,0.00,meteohub,2013-12-04 18:50:00,
2013-12-04 13:55:00,37.2,27.7,30.08,NNW,343,0.0,4.0,68,0.00,,,0.00,meteohub,2013-12-04 18:55:00,
2013-12-04 14:00:00,37.2,27.3,30.08,NNW,343,0.0,4.0,67,0.00,,,0.00,meteohub,2013-12-04 19:00:00,
2013-12-04 14:05:00,37.2,27.3,30.08,West,278,3.0,5.0,67,0.00,,,0.00,meteohub,2013-12-04 19:05:00,
2013-12-04 14:10:00,37.2,27.3,30.08,WNW,295,0.0,5.0,67,0.00,,,0.00,meteohub,2013-12-04 19:10:00,
2013-12-04 14:15:00,37.4,27.5,30.08,NW,326,0.0,5.0,67,0.00,,,0.00,meteohub,2013-12-04 19:15:00,
2013-12-04 14:20:00,37.6,27.7,30.09,NW,326,0.0,5.0,67,0.00,,,0.00,meteohub,2013-12-04 19:20:00,
2013-12-04 14:25:00,37.4,27.9,30.09,NW,326,1.0,3.0,68,0.00,,,0.00,meteohub,2013-12-04 19:25:00,
2013-12-04 14:30:00,37.2,27.7,30.09,NW,326,0.0,3.0,68,0.00,,,0.00,meteohub,2013-12-04 19:30:00,
2013-12-04 14:35:00,37.0,27.9,30.09,NW,326,0.0,2.0,69,0.00,,,0.00,meteohub,2013-12-04 19:35:00,
2013-12-04 14:40:00,36.9,28.0,30.10,NW,326,0.0,2.0,70,0.00,,,0.00,meteohub,2013-12-04 19:40:00,
2013-12-04 14:45:00,36.7,28.2,30.10,NW,326,1.0,2.0,71,0.00,,,0.00,meteohub,2013-12-04 19:45:00,
2013-12-04 14:50:00,36.7,27.9,30.10,NW,326,0.0,2.0,70,0.00,,,0.00,meteohub,2013-12-04 19:50:00,
2013-12-04 14:55:00,36.7,28.6,30.10,NW,326,0.0,2.0,72,0.00,,,0.00,meteohub,2013-12-04 19:55:00,
2013-12-04 15:00:00,36.7,27.9,30.10,WNW,297,1.0,1.0,70,0.00,,,0.00,meteohub,2013-12-04 20:00:00,
2013-12-04 15:05:00,36.7,27.9,30.10,WNW,297,0.0,3.0,70,0.00,,,0.00,meteohub,2013-12-04 20:05:00,
2013-12-04 15:10:00,36.7,27.9,30.11,ESE,119,0.0,3.0,70,0.00,,,0.00,meteohub,2013-12-04 20:10:00,
2013-12-04 15:15:00,36.7,28.2,30.11,ESE,119,0.0,3.0,71,0.00,,,0.00,meteohub,2013-12-04 20:15:00,
2013-12-04 15:20:00,36.5,28.4,30.11,ESE,119,0.0,3.0,72,0.00,,,0.00,meteohub,2013-12-04 20:20:00,
2013-12-04 15:25:00,36.3,28.2,30.11,ESE,119,0.0,3.0,72,0.00,,,0.00,meteohub,2013-12-04 20:25:00,
2013-12-04 15:30:00,36.1,28.0,30.11,ESE,119,0.0,1.0,72,0.00,,,0.00,meteohub,2013-12-04 20:30:00,
2013-12-04 15:35:00,36.1,28.4,30.10,ESE,119,0.0,0.0,73,0.00,,,0.00,meteohub,2013-12-04 20:35:00,
2013-12-04 15:40:00,35.8,27.7,30.10,ESE,119,0.0,0.0,72,0.00,,,0.00,meteohub,2013-12-04 20:40:00,
2013-12-04 15:45:00,35.6,27.1,30.11,ESE,119,0.0,0.0,71,0.00,,,0.00,meteohub,2013-12-04 20:45:00,
2013-12-04 15:50:00,35.2,27.5,30.11,ESE,119,0.0,1.0,73,0.00,,,0.00,meteohub,2013-12-04 20:50:00,
2013-12-04 15:55:00,35.1,27.7,30.12,ESE,119,0.0,1.0,74,0.00,,,0.00,meteohub,2013-12-04 20:55:00,
2013-12-04 16:00:00,34.9,27.5,30.12,ESE,119,0.0,1.0,74,0.00,,,0.00,meteohub,2013-12-04 21:00:00,
2013-12-04 16:05:00,34.5,27.7,30.12,ESE,119,0.0,0.0,76,0.00,,,0.00,meteohub,2013-12-04 21:05:00,
2013-12-04 16:10:00,34.3,27.9,30.12,ESE,119,0.0,0.0,77,0.00,,,0.00,meteohub,2013-12-04 21:10:00,
2013-12-04 16:15:00,34.2,28.4,30.12,ESE,119,0.0,0.0,79,0.00,,,0.00,meteohub,2013-12-04 21:15:00,
2013-12-04 16:20:00,34.0,28.8,30.12,ESE,119,0.0,1.0,81,0.00,,,0.00,meteohub,2013-12-04 21:20:00,
2013-12-04 16:26:00,34.0,28.8,30.12,ESE,119,0.0,1.0,81,0.00,,,0.00,meteohub,2013-12-04 21:26:00,
2013-12-04 16:31:00,33.8,28.9,30.13,ESE,119,0.0,1.0,82,0.00,,,0.00,meteohub,2013-12-04 21:31:00,
2013-12-04 16:36:00,33.8,29.1,30.13,ESE,119,0.0,0.0,83,0.00,,,0.00,meteohub,2013-12-04 21:36:00,
2013-12-04 16:41:00,33.8,28.9,30.13,ESE,119,0.0,0.0,82,0.00,,,0.00,meteohub,2013-12-04 21:41:00,
2013-12-04 16:46:00,33.6,28.8,30.13,ESE,119,0.0,0.0,82,0.00,,,0.00,meteohub,2013-12-04 21:46:00,
2013-12-04 16:51:00,33.6,28.8,30.14,ESE,119,0.0,0.0,82,0.00,,,0.00,meteohub,2013-12-04 21:51:00,
2013-12-04 16:56:00,33.6,28.8,30.14,ESE,119,0.0,0.0,82,0.00,,,0.00,meteohub,2013-12-04 21:56:00,
2013-12-04 17:01:00,33.6,28.9,30.14,ESE,119,0.0,0.0,83,0.00,,,0.00,meteohub,2013-12-04 22:01:00,
2013-12-04 17:06:00,33.6,28.9,30.15,ESE,119,0.0,0.0,83,0.00,,,0.00,meteohub,2013-12-04 22:06:00,
2013-12-04 17:11:00,33.6,28.9,30.15,ESE,119,0.0,0.0,83,0.00,,,0.00,meteohub,2013-12-04 22:11:00,
2013-12-04 17:16:00,33.8,29.1,30.15,ESE,119,0.0,0.0,83,0.00,,,0.00,meteohub,2013-12-04 22:16:00,
2013-12-04 17:21:00,33.6,28.9,30.16,ESE,119,0.0,0.0,83,0.00,,,0.00,meteohub,2013-12-04 22:21:00,
2013-12-04 17:26:00,33.6,28.9,30.15,ESE,119,0.0,0.0,83,0.00,,,0.00,meteohub,2013-12-04 22:26:00,
2013-12-04 17:31:00,33.6,29.7,30.15,ESE,119,0.0,0.0,85,0.00,,,0.00,meteohub,2013-12-04 22:31:00,
2013-12-04 17:36:00,33.6,29.3,30.15,ESE,119,0.0,0.0,84,0.00,,,0.00,meteohub,2013-12-04 22:36:00,
2013-12-04 17:41:00,33.6,28.9,30.15,ESE,119,0.0,0.0,83,0.00,,,0.00,meteohub,2013-12-04 22:41:00,
2013-12-04 17:46:00,33.6,29.3,30.15,ESE,119,0.0,0.0,84,0.00,,,0.00,meteohub,2013-12-04 22:46:00,
2013-12-04 17:51:00,33.6,29.3,30.15,ESE,119,0.0,0.0,84,0.00,,,0.00,meteohub,2013-12-04 22:51:00,
2013-12-04 17:56:00,33.4,29.1,30.15,ESE,119,0.0,0.0,84,0.00,,,0.00,meteohub,2013-12-04 22:56:00,
2013-12-04 18:01:00,33.4,29.1,30.15,ESE,119,0.0,0.0,84,0.00,,,0.00,meteohub,2013-12-04 23:01:00,
2013-12-04 18:06:00,33.4,28.8,30.15,ESE,119,0.0,0.0,83,0.00,,,0.00,meteohub,2013-12-04 23:06:00,
2013-12-04 18:11:00,33.3,28.9,30.15,ESE,119,0.0,0.0,84,0.00,,,0.00,meteohub,2013-12-04 23:11:00,
2013-12-04 18:16:00,33.1,28.4,30.15,ESE,119,0.0,0.0,83,0.00,,,0.00,meteohub,2013-12-04 23:16:00,
2013-12-04 18:21:00,32.9,28.0,30.15,ESE,119,0.0,0.0,82,0.00,,,0.00,meteohub,2013-12-04 23:21:00,
2013-12-04 18:26:00,32.7,27.9,30.15,ESE,119,0.0,0.0,82,0.00,,,0.00,meteohub,2013-12-04 23:26:00,
2013-12-04 18:31:00,32.4,27.5,30.15,ESE,119,0.0,0.0,82,0.00,,,0.00,meteohub,2013-12-04 23:31:00,
2013-12-04 18:36:00,32.2,27.3,30.15,ESE,119,0.0,0.0,82,0.00,,,0.00,meteohub,2013-12-04 23:36:00,
2013-12-04 18:41:00,31.8,27.3,30.15,ESE,119,0.0,0.0,83,0.00,,,0.00,meteohub,2013-12-04 23:41:00,
2013-12-04 18:46:00,31.6,27.3,30.16,ESE,119,0.0,0.0,84,0.00,,,0.00,meteohub,2013-12-04 23:46:00,
2013-12-04 18:51:00,31.3,27.0,30.16,ESE,119,0.0,0.0,84,0.00,,,0.00,meteohub,2013-12-04 23:51:00,
2013-12-04 18:56:00,30.9,26.6,30.16,ESE,119,0.0,0.0,84,0.00,,,0.00,meteohub,2013-12-04 23:56:00,
2013-12-04 19:01:00,30.7,26.8,30.16,ESE,119,0.0,0.0,85,0.00,,,0.00,meteohub,2013-12-05 00:01:00,
2013-12-04 19:06:00,30.6,27.0,30.16,ESE,119,0.0,0.0,86,0.00,,,0.00,meteohub,2013-12-05 00:06:00,
2013-12-04 19:11:00,30.4,26.8,30.15,ESE,119,0.0,0.0,86,0.00,,,0.00,meteohub,2013-12-05 00:11:00,
2013-12-04 19:16:00,30.0,26.4,30.16,ESE,119,0.0,0.0,86,0.00,,,0.00,meteohub,2013-12-05 00:16:00,
2013-12-04 19:21:00,29.8,26.2,30.16,ESE,119,0.0,0.0,86,0.00,,,0.00,meteohub,2013-12-05 00:21:00,
2013-12-04 19:26:00,29.7,26.1,30.16,ESE,119,0.0,0.0,86,0.00,,,0.00,meteohub,2013-12-05 00:26:00,
2013-12-04 19:31:00,29.7,26.2,30.16,ESE,119,0.0,0.0,87,0.00,,,0.00,meteohub,2013-12-05 00:31:00,
2013-12-04 19:36:00,29.5,26.4,30.16,ESE,119,0.0,0.0,88,0.00,,,0.00,meteohub,2013-12-05 00:36:00,
2013-12-04 19:41:00,29.3,26.2,30.16,ESE,119,0.0,0.0,88,0.00,,,0.00,meteohub,2013-12-05 00:41:00,
2013-12-04 19:46:00,29.1,26.2,30.16,ESE,119,0.0,0.0,89,0.00,,,0.00,meteohub,2013-12-05 00:46:00,
2013-12-04 19:51:00,29.1,26.2,30.16,ESE,119,0.0,0.0,89,0.00,,,0.00,meteohub,2013-12-05 00:51:00,
2013-12-04 19:56:00,29.1,26.2,30.16,ESE,119,0.0,0.0,89,0.00,,,0.00,meteohub,2013-12-05 00:56:00,
2013-12-04 20:01:00,28.9,26.1,30.16,ESE,119,0.0,0.0,89,0.00,,,0.00,meteohub,2013-12-05 01:01:00,
2013-12-04 20:06:00,28.9,26.1,30.17,ESE,119,0.0,0.0,89,0.00,,,0.00,meteohub,2013-12-05 01:06:00,
2013-12-04 20:11:00,28.8,25.9,30.17,ESE,119,0.0,0.0,89,0.00,,,0.00,meteohub,2013-12-05 01:11:00,
2013-12-04 20:16:00,28.8,25.9,30.17,ESE,119,0.0,0.0,89,0.00,,,0.00,meteohub,2013-12-05 01:16:00,
2013-12-04 20:21:00,28.6,25.7,30.16,ESE,119,0.0,0.0,89,0.00,,,0.00,meteohub,2013-12-05 01:21:00,
2013-12-04 20:26:00,28.6,26.1,30.17,ESE,119,0.0,0.0,90,0.00,,,0.00,meteohub,2013-12-05 01:26:00,
2013-12-04 20:31:00,28.6,26.1,30.16,ESE,119,0.0,1.0,90,0.00,,,0.00,meteohub,2013-12-05 01:31:00,
2013-12-04 20:36:00,28.4,25.9,30.16,ESE,119,0.0,1.0,90,0.00,,,0.00,meteohub,2013-12-05 01:36:00,
2013-12-04 20:41:00,28.4,25.9,30.17,ESE,119,0.0,1.0,90,0.00,,,0.00,meteohub,2013-12-05 01:41:00,
2013-12-04 20:46:00,28.2,25.7,30.17,ESE,119,0.0,0.0,90,0.00,,,0.00,meteohub,2013-12-05 01:46:00,
2013-12-04 20:51:00,28.2,25.7,30.17,ESE,119,0.0,0.0,90,0.00,,,0.00,meteohub,2013-12-05 01:51:00,
2013-12-04 20:56:00,28.0,25.5,30.17,ESE,119,0.0,0.0,90,0.00,,,0.00,meteohub,2013-12-05 01:56:00,
2013-12-04 21:01:00,28.0,25.5,30.17,ESE,119,0.0,0.0,90,0.00,,,0.00,meteohub,2013-12-05 02:01:00,
2013-12-04 21:06:00,28.0,25.5,30.17,ESE,119,0.0,0.0,90,0.00,,,0.00,meteohub,2013-12-05 02:06:00,
2013-12-04 21:11:00,27.9,25.5,30.17,ESE,119,0.0,0.0,91,0.00,,,0.00,meteohub,2013-12-05 02:11:00,
2013-12-04 21:16:00,27.9,25.5,30.17,ESE,119,0.0,0.0,91,0.00,,,0.00,meteohub,2013-12-05 02:16:00,
2013-12-04 21:21:00,27.9,25.5,30.17,ESE,119,0.0,0.0,91,0.00,,,0.00,meteohub,2013-12-05 02:21:00,
2013-12-04 21:26:00,27.9,25.5,30.16,ESE,119,0.0,0.0,91,0.00,,,0.00,meteohub,2013-12-05 02:26:00,
2013-12-04 21:31:00,27.9,25.5,30.16,ESE,119,0.0,0.0,91,0.00,,,0.00,meteohub,2013-12-05 02:31:00,
2013-12-04 21:36:00,27.7,25.3,30.16,ESE,119,0.0,0.0,91,0.00,,,0.00,meteohub,2013-12-05 02:36:00,
2013-12-04 21:41:00,27.7,25.3,30.16,ESE,119,0.0,0.0,91,0.00,,,0.00,meteohub,2013-12-05 02:41:00,
2013-12-04 21:46:00,27.7,25.3,30.17,ESE,119,0.0,0.0,91,0.00,,,0.00,meteohub,2013-12-05 02:46:00,
2013-12-04 21:51:00,27.5,25.2,30.17,ESE,119,0.0,0.0,91,0.00,,,0.00,meteohub,2013-12-05 02:51:00,
2013-12-04 21:56:00,27.3,25.0,30.17,ESE,119,0.0,0.0,91,0.00,,,0.00,meteohub,2013-12-05 02:56:00,
2013-12-04 22:01:00,27.3,25.0,30.17,ESE,119,0.0,0.0,91,0.00,,,0.00,meteohub,2013-12-05 03:01:00,
2013-12-04 22:06:00,27.3,25.0,30.17,ESE,119,0.0,0.0,91,0.00,,,0.00,meteohub,2013-12-05 03:06:00,
2013-12-04 22:11:00,27.1,25.2,30.17,ESE,119,0.0,0.0,92,0.00,,,0.00,meteohub,2013-12-05 03:11:00,
2013-12-04 22:16:00,27.1,25.2,30.17,ESE,119,0.0,0.0,92,0.00,,,0.00,meteohub,2013-12-05 03:16:00,
2013-12-04 22:21:00,27.0,25.0,30.17,ESE,119,0.0,0.0,92,0.00,,,0.00,meteohub,2013-12-05 03:21:00,
2013-12-04 22:26:00,27.1,25.2,30.17,ESE,119,0.0,0.0,92,0.00,,,0.00,meteohub,2013-12-05 03:26:00,
2013-12-04 22:31:00,27.1,25.2,30.17,ESE,119,0.0,0.0,92,0.00,,,0.00,meteohub,2013-12-05 03:31:00,
2013-12-04 22:36:00,27.1,25.2,30.17,ESE,119,0.0,0.0,92,0.00,,,0.00,meteohub,2013-12-05 03:36:00,
2013-12-04 22:41:00,27.1,25.2,30.17,ESE,119,0.0,0.0,92,0.00,,,0.00,meteohub,2013-12-05 03:41:00,
2013-12-04 22:46:00,27.0,25.0,30.17,ESE,119,0.0,0.0,92,0.00,,,0.00,meteohub,2013-12-05 03:46:00,
2013-12-04 22:51:00,27.0,25.0,30.17,ESE,119,0.0,0.0,92,0.00,,,0.00,meteohub,2013-12-05 03:51:00,
2013-12-04 22:56:00,27.0,25.0,30.17,ESE,119,0.0,0.0,92,0.00,,,0.00,meteohub,2013-12-05 03:56:00,
2013-12-04 23:01:00,27.0,25.0,30.17,ESE,119,0.0,0.0,92,0.00,,,0.00,meteohub,2013-12-05 04:01:00,
2013-12-04 23:06:00,27.0,25.2,30.17,ESE,119,0.0,0.0,93,0.00,,,0.00,meteohub,2013-12-05 04:06:00,
2013-12-04 23:11:00,27.0,25.0,30.18,ESE,119,0.0,0.0,92,0.00,,,0.00,meteohub,2013-12-05 04:11:00,
2013-12-04 23:16:00,27.0,25.0,30.17,ESE,119,0.0,0.0,92,0.00,,,0.00,meteohub,2013-12-05 04:16:00,
2013-12-04 23:21:00,27.0,25.0,30.17,ESE,119,0.0,0.0,92,0.00,,,0.00,meteohub,2013-12-05 04:21:00,
2013-12-04 23:26:00,26.8,24.8,30.17,ESE,119,0.0,0.0,92,0.00,,,0.00,meteohub,2013-12-05 04:26:00,
2013-12-04 23:31:00,26.8,24.8,30.17,ESE,119,0.0,0.0,92,0.00,,,0.00,meteohub,2013-12-05 04:31:00,
2013-12-04 23:36:00,26.8,25.0,30.17,ESE,119,0.0,0.0,93,0.00,,,0.00,meteohub,2013-12-05 04:36:00,
2013-12-04 23:41:00,26.8,25.0,30.17,ESE,119,0.0,0.0,93,0.00,,,0.00,meteohub,2013-12-05 04:41:00,
2013-12-04 23:46:00,26.8,25.0,30.17,ESE,119,0.0,0.0,93,0.00,,,0.00,meteohub,2013-12-05 04:46:00,
2013-12-04 23:51:00,26.8,25.0,30.17,ESE,119,0.0,0.0,93,0.00,,,0.00,meteohub,2013-12-05 04:51:00,
2013-12-04 23:56:00,26.6,24.8,30.17,ESE,119,0.0,0.0,93,0.00,,,0.00,meteohub,2013-12-05 04:56:00,